Wind_Speed
53 52 52 52 53 53 53 54 53 52 50 49 49 48 49 48 47 47 46 45 45 45 44 43 42 42 42 42 41 42 42 43 45 46 46 47 48 48
53 51 49 50 51 52 53 52 52 50 49 47 47 47 47 47 46 46 47 46 45 43 43 41 41 41 41 41 42 42 42 44 45 46 46 46 47 49
53 51 49 49 50 51 52 51 50 50 49 47 47 46 45 46 45 45 46 46 44 43 42 41 41 41 41 42 42 42 42 43 43 44 46 47 48 50
52 50 48 48 49 50 51 50 49 48 47 46 46 45 45 45 44 44 44 45 45 43 41 41 41 40 41 41 41 41 41 42 43 44 46 47 49 50
48 47 46 47 47 49 50 49 47 47 46 45 46 45 44 43 43 44 43 43 42 41 41 41 40 39 39 40 40 40 41 41 42 44 46 47 49 50
45 45 45 45 46 47 47 47 46 44 45 45 45 44 43 42 42 42 41 41 40 40 42 41 39 39 39 39 39 40 40 40 42 44 46 48 49 50
44 43 43 42 43 44 44 45 45 43 43 45 45 43 42 42 42 40 40 39 40 40 40 39 39 38 38 38 40 40 40 41 43 45 46 48 49 49
42 40 40 40 41 43 43 43 43 41 41 44 44 42 40 40 39 38 38 38 39 39 37 36 36 37 37 38 38 39 41 41 43 45 47 48 48 48
40 38 38 40 40 40 40 41 41 40 40 42 43 42 41 39 38 37 36 37 37 36 35 34 34 35 35 36 37 38 39 41 43 45 47 47 47 45
37 36 37 38 38 38 39 40 40 39 40 40 40 40 41 40 38 36 35 35 34 34 34 33 33 33 35 36 37 38 39 41 43 44 45 45 44 42
34 35 37 36 36 36 37 38 38 38 38 37 38 39 40 39 36 35 34 33 31 31 32 31 31 32 33 35 37 38 38 40 42 43 43 42 41 41
32 33 34 34 34 35 35 35 35 36 36 36 37 37 38 37 35 34 33 31 30 29 30 30 30 32 33 35 37 37 38 39 40 40 40 39 39 40
30 31 32 33 32 32 33 33 33 34 34 35 36 36 36 35 34 33 31 29 28 27 27 28 29 31 33 35 36 36 36 37 38 37 37 37 38 39
29 29 29 30 30 31 32 32 32 33 33 34 34 33 33 32 32 31 29 27 26 26 26 27 29 30 32 33 33 34 34 35 35 34 35 36 37 38
28 28 28 28 29 30 31 31 31 31 31 31 30 29 29 29 29 29 28 27 27 27 27 28 29 30 31 31 31 31 32 32 32 33 34 35 35 36
25 27 27 26 27 28 29 29 29 27 27 27 26 27 27 28 27 26 26 26 26 26 26 26 28 29 29 28 29 30 30 30 30 31 33 34 34 35
25 25 25 24 25 26 26 25 25 25 25 25 25 26 26 26 25 24 24 24 24 25 25 25 25 26 25 25 26 27 27 28 28 30 31 32 33 34
23 23 24 23 24 24 24 23 24 22 22 23 24 24 24 24 23 23 23 22 22 23 23 23 23 24 24 24 24 25 25 26 27 28 29 31 32 32
22 22 22 21 21 21 22 22 22 22 22 22 22 23 23 22 22 22 21 21 21 21 21 21 22 22 22 22 22 22 23 24 25 26 28 29 30 30
20 21 21 20 19 19 20 21 21 21 21 21 21 22 21 21 21 20 20 20 19 20 19 19 20 19 19 19 20 21 21 22 23 25 26 28 28 28
20 20 21 20 20 19 19 20 20 21 21 21 21 20 20 19 19 19 19 19 19 18 18 18 17 17 17 18 19 19 20 21 22 24 25 26 26 27
19 19 20 20 19 19 19 19 20 21 21 21 20 19 18 18 18 18 18 18 17 16 15 15 15 15 16 16 17 18 18 20 22 23 23 24 25 25
18 18 19 19 18 18 18 18 18 19 20 19 18 17 17 17 16 16 16 16 15 14 13 13 14 15 15 15 16 16 17 18 20 21 22 23 23 23
Wind_Direction
247 248 249 248 246 246 245 245 246 245 244 244 245 247 248 250 251 252 254 257 260 264 266 270 273 277 280 283 285 289 294 297 300 304 306 308 310 312
244 245 247 248 245 244 244 244 244 244 242 243 244 245 247 249 250 252 253 256 258 261 265 269 273 277 280 282 285 289 294 297 300 304 308 309 311 313
243 244 246 245 243 243 242 242 243 243 242 242 242 242 244 247 248 251 253 255 257 260 264 269 273 276 278 282 284 289 294 297 301 305 308 309 311 313
242 243 244 244 242 241 241 241 241 241 241 240 240 241 243 245 247 249 252 254 256 259 263 268 272 275 280 283 285 289 294 297 301 305 308 310 312 314
241 241 242 242 240 240 239 239 239 240 240 239 239 240 242 244 247 249 251 254 256 259 262 267 271 274 279 282 287 291 294 298 302 306 308 310 313 314
239 239 240 240 239 237 236 237 238 239 239 238 238 239 241 244 246 249 251 252 255 259 262 266 270 274 278 282 286 291 295 299 302 305 308 311 313 314
236 237 237 236 235 234 234 236 237 239 239 237 237 238 241 243 244 247 251 252 255 259 262 265 270 273 278 282 285 292 297 300 303 306 309 312 313 313
232 232 233 233 232 231 232 235 236 237 237 236 236 238 241 243 244 247 250 252 256 258 262 267 272 275 280 284 287 292 298 301 304 308 310 313 313 313
229 230 232 231 230 230 232 233 233 235 235 235 236 238 239 241 243 246 249 254 256 257 262 268 272 276 280 284 289 294 298 303 306 308 311 312 313 313
228 229 228 227 227 228 229 229 229 231 233 234 237 238 238 240 242 245 249 253 255 257 262 268 272 277 282 286 291 296 299 304 307 309 311 312 313 314
229 229 226 226 226 227 227 226 228 230 231 234 236 237 237 238 242 244 247 250 253 259 263 267 273 278 283 288 292 297 300 305 308 310 312 313 314 316
226 225 224 224 226 226 227 229 231 232 233 235 237 238 239 240 243 244 247 247 252 259 265 269 275 280 285 289 294 298 302 305 308 310 312 314 315 317
219 219 221 223 224 226 227 230 231 231 232 234 236 238 240 241 243 243 244 248 253 260 267 272 276 281 286 290 295 299 302 306 309 311 313 315 317 319
215 214 218 221 222 224 225 227 229 232 233 235 236 238 239 240 242 241 245 249 254 261 268 273 276 281 286 291 296 300 304 307 310 311 314 317 319 322
211 211 215 219 220 222 223 225 227 230 232 232 234 236 237 239 242 243 245 250 256 261 267 273 278 282 287 291 296 301 306 308 310 313 316 319 321 324
212 213 216 220 222 224 224 223 224 227 229 231 232 234 237 239 241 242 244 248 254 260 267 272 279 284 287 291 296 302 307 310 312 315 318 322 324 325
215 217 218 221 220 220 220 220 221 223 226 230 232 235 237 237 239 241 244 249 255 260 264 270 278 284 288 293 298 304 309 311 313 317 321 324 326 328
215 215 216 215 216 218 218 219 219 220 224 228 230 233 235 237 240 243 246 249 255 261 265 271 278 284 289 294 299 305 309 312 316 319 323 326 328 330
212 212 212 212 213 216 218 218 217 219 223 225 227 230 234 237 241 242 244 247 254 260 264 270 277 284 290 295 301 307 311 315 318 322 325 328 329 331
208 210 211 212 213 213 214 215 216 219 222 225 228 230 233 235 237 238 241 246 252 257 263 269 277 285 293 299 304 308 312 316 320 323 326 329 331 333
205 208 209 212 212 211 212 214 218 221 224 226 227 227 228 230 233 236 240 244 248 255 263 271 280 288 295 299 303 308 312 317 321 325 328 330 333 335
204 208 209 210 212 213 213 215 219 221 222 222 222 222 224 229 231 233 238 242 246 255 265 274 282 289 295 299 303 308 312 318 324 327 330 332 334 335
205 208 209 210 210 210 211 213 214 215 215 215 216 219 222 225 227 231 234 237 244 257 268 275 281 289 297 301 304 308 314 321 327 331 333 335 336 336
Height
5580 5586 5591 5597 5603 5608 5614 5620 5626 5633 5641 5647 5653 5658 5663 5668 5673 5677 5681 5684 5685 5687 5687 5688 5688 5687 5685 5683 5680 5678 5674 5671 5667 5662 5656 5650 5644 5637
5565 5571 5577 5583 5589 5595 5601 5607 5613 5620 5628 5635 5640 5646 5651 5656 5661 5665 5669 5672 5674 5676 5677 5678 5678 5677 5676 5673 5671 5668 5665 5661 5657 5652 5646 5640 5634 5626
5551 5557 5564 5569 5575 5582 5588 5594 5601 5607 5615 5623 5628 5634 5639 5645 5650 5654 5658 5661 5664 5666 5667 5668 5668 5667 5666 5664 5662 5659 5656 5652 5648 5643 5637 5631 5624 5617
5538 5544 5551 5556 5563 5569 5576 5582 5589 5596 5603 5610 5617 5623 5628 5633 5639 5643 5647 5650 5653 5656 5658 5658 5658 5658 5656 5655 5652 5649 5646 5643 5639 5633 5628 5621 5614 5606
5526 5532 5539 5544 5551 5557 5564 5571 5578 5585 5591 5598 5606 5613 5618 5623 5628 5632 5636 5640 5643 5646 5647 5648 5648 5648 5647 5646 5643 5640 5637 5634 5629 5624 5617 5611 5603 5596
5514 5521 5527 5533 5540 5546 5553 5561 5568 5574 5580 5588 5595 5602 5607 5613 5617 5622 5626 5630 5633 5635 5637 5638 5639 5638 5638 5636 5635 5632 5628 5624 5619 5614 5607 5601 5593 5585
5503 5510 5517 5523 5530 5536 5543 5551 5557 5564 5570 5577 5585 5591 5597 5602 5608 5612 5616 5620 5623 5625 5627 5629 5630 5630 5628 5627 5625 5622 5619 5615 5610 5604 5597 5591 5583 5575
5494 5501 5507 5513 5520 5527 5534 5541 5548 5554 5561 5568 5574 5581 5588 5593 5598 5602 5606 5610 5614 5617 5618 5619 5620 5620 5619 5618 5616 5613 5610 5605 5600 5594 5588 5580 5573 5565
5484 5491 5498 5505 5511 5518 5525 5531 5539 5545 5552 5560 5566 5572 5579 5584 5589 5593 5597 5601 5604 5607 5608 5610 5611 5611 5610 5608 5606 5604 5600 5596 5591 5584 5577 5571 5564 5556
5476 5483 5490 5497 5503 5510 5517 5524 5531 5538 5545 5551 5558 5564 5570 5574 5579 5584 5588 5591 5594 5597 5599 5601 5602 5602 5601 5599 5597 5595 5591 5586 5581 5575 5568 5562 5555 5548
5469 5476 5482 5489 5496 5502 5509 5516 5523 5530 5536 5542 5549 5555 5560 5566 5570 5575 5579 5582 5585 5589 5591 5593 5593 5593 5592 5591 5589 5585 5582 5577 5571 5565 5559 5553 5546 5539
5462 5469 5475 5482 5489 5495 5502 5509 5516 5523 5528 5534 5540 5546 5551 5557 5562 5566 5571 5574 5578 5581 5583 5584 5585 5584 5584 5582 5580 5576 5572 5568 5563 5557 5551 5545 5538 5531
5457 5463 5470 5477 5483 5489 5495 5502 5509 5515 5521 5527 5533 5538 5544 5549 5554 5558 5563 5567 5570 5573 5575 5576 5577 5576 5575 5574 5571 5567 5564 5559 5554 5549 5543 5538 5531 5524
5453 5459 5465 5471 5477 5483 5489 5495 5501 5507 5513 5519 5525 5531 5536 5542 5546 5551 5555 5559 5562 5565 5567 5568 5568 5568 5567 5565 5562 5559 5555 5551 5546 5541 5536 5530 5524 5517
5449 5455 5461 5466 5472 5477 5483 5489 5495 5501 5507 5513 5518 5524 5529 5534 5539 5543 5547 5551 5554 5557 5558 5560 5560 5559 5558 5556 5554 5551 5547 5543 5539 5534 5529 5523 5517 5510
5445 5451 5456 5461 5467 5472 5478 5483 5489 5495 5501 5507 5512 5517 5522 5527 5531 5536 5540 5544 5547 5549 5550 5551 5551 5550 5549 5548 5546 5543 5540 5536 5532 5527 5522 5516 5510 5504
5442 5447 5452 5457 5462 5468 5473 5478 5484 5489 5495 5501 5506 5511 5515 5520 5524 5529 5533 5536 5539 5541 5542 5543 5543 5542 5541 5540 5538 5536 5533 5529 5525 5520 5516 5510 5504 5498
5438 5443 5448 5453 5458 5463 5469 5474 5479 5485 5490 5495 5500 5505 5509 5514 5518 5522 5526 5529 5531 5533 5535 5536 5536 5536 5535 5533 5532 5529 5526 5523 5519 5514 5509 5504 5499 5493
5435 5440 5445 5449 5454 5459 5464 5470 5475 5480 5485 5490 5494 5499 5504 5508 5512 5516 5519 5522 5524 5526 5527 5529 5529 5529 5528 5527 5525 5523 5520 5517 5513 5508 5504 5499 5494 5488
5432 5437 5442 5446 5451 5456 5461 5466 5470 5475 5480 5485 5489 5494 5498 5502 5506 5510 5513 5516 5518 5519 5521 5522 5522 5522 5522 5521 5519 5516 5514 5511 5508 5503 5499 5494 5489 5484
5429 5434 5438 5443 5447 5452 5457 5461 5466 5471 5476 5480 5485 5489 5493 5497 5500 5504 5507 5509 5511 5513 5515 5516 5516 5516 5515 5514 5513 5511 5509 5506 5503 5499 5494 5490 5485 5480
5426 5430 5435 5439 5444 5448 5453 5457 5462 5466 5471 5476 5480 5484 5488 5492 5495 5499 5501 5504 5506 5508 5509 5510 5510 5510 5509 5509 5508 5506 5504 5501 5498 5494 5490 5486 5482 5477
5423 5427 5432 5436 5441 5445 5450 5454 5458 5462 5467 5472 5476 5480 5484 5487 5491 5494 5496 5499 5501 5503 5504 5505 5505 5505 5504 5504 5503 5501 5499 5497 5494 5490 5487 5482 5478 5474